Theta_e
324 327 328 325 318 312 312 315 315 317 317 313 314 315 315 315 313 312 313 312 310 310 313 313 312 312 309 307 306 303 302 301 300 300 299 297 297 298 298 298 298 297 295 295 294 293 293 293 293 292 292 292 292 292 292 292 292 292 292 292 292 292 292 291 291 291 291 291 291 291 291 291 291 291 292 292 292 292 293 293 293 294 294 295 297 297
325 324 328 326 316 311 311 312 313 312 312 312 314 314 316 316 314 313 313 310 308 310 314 313 311 311 310 308 305 302 301 300 300 299 298 297 297 298 298 297 297 296 295 295 294 293 293 293 292 292 292 292 292 292 292 292 291 291 291 291 291 291 291 291 291 291 291 290 290 290 290 291 291 291 291 291 291 292 292 293 293 294 294 295 296 296
324 326 330 322 313 311 311 312 312 312 313 314 315 314 315 317 316 315 314 310 308 309 314 314 310 309 310 309 305 301 301 300 300 299 297 296 297 298 297 297 296 296 296 296 294 293 293 293 292 292 292 292 292 291 291 291 291 291 291 291 291 290 290 290 290 290 290 289 289 289 289 289 289 289 289 289 289 290 292 292 293 293 294 294 295 296
323 329 324 315 312 311 311 313 313 312 314 315 316 315 315 317 316 316 314 312 309 308 311 312 308 307 307 306 303 301 301 301 300 299 299 298 298 298 298 298 297 296 296 296 295 294 293 292 292 292 292 291 291 291 291 291 291 291 291 290 290 290 290 290 290 289 288 288 288 287 287 286 286 286 286 286 287 288 290 291 292 293 293 294 294 295
319 321 316 313 313 312 314 316 315 315 316 319 319 315 315 316 315 316 315 312 310 311 312 309 308 310 308 305 303 300 300 300 299 298 299 299 299 299 298 299 299 297 296 296 296 294 292 292 292 291 291 291 291 291 291 291 290 290 290 290 290 289 289 289 288 288 287 286 286 285 285 284 284 284 284 285 286 287 287 288 289 291 292 293 294 295
316 314 313 315 315 316 318 319 320 320 318 320 322 319 319 316 314 315 315 313 311 313 314 308 310 313 308 305 303 300 299 299 297 297 297 298 298 298 297 297 298 298 296 295 294 293 292 291 291 291 291 291 290 290 290 290 290 290 289 289 289 288 288 287 287 286 285 285 284 284 283 283 283 284 284 285 285 285 285 285 286 288 290 292 293 294
313 311 313 317 318 318 318 319 322 320 316 318 320 319 317 312 310 313 312 312 313 314 312 307 310 311 306 303 302 299 299 299 297 297 296 296 296 297 297 297 297 296 295 295 294 292 291 291 291 290 291 290 290 290 290 290 289 289 289 289 288 287 286 286 285 285 284 284 283 283 282 282 283 283 284 284 284 284 284 284 285 286 288 290 292 293
314 311 315 317 317 318 318 318 319 318 318 319 316 313 311 309 310 313 312 311 311 311 310 308 309 308 307 306 301 298 298 298 297 296 295 295 295 296 297 297 296 296 295 296 297 294 290 290 291 290 290 290 290 290 290 289 289 288 288 288 287 286 285 285 284 284 283 283 283 282 282 282 282 283 284 284 283 283 283 284 285 285 286 288 290 292
314 313 319 319 316 318 319 320 321 317 317 318 314 310 309 310 311 312 311 311 309 308 308 310 309 309 312 310 301 297 297 297 296 295 294 294 295 296 296 296 296 295 296 296 296 294 290 290 291 290 290 290 290 290 289 288 288 288 287 287 286 285 285 284 283 283 283 282 282 282 282 282 282 282 282 282 282 283 282 283 283 284 284 286 287 289
313 314 320 321 316 317 318 318 319 317 314 313 312 311 311 312 311 310 310 309 307 308 309 310 309 309 312 309 300 297 298 297 296 295 294 294 295 296 296 296 296 295 296 296 293 290 290 291 290 290 290 290 290 289 288 288 287 287 286 286 285 285 284 283 283 282 282 282 282 281 281 281 281 281 281 281 281 282 282 282 283 283 284 285 286 288
312 309 313 315 313 315 315 312 314 315 312 309 309 311 313 314 312 309 311 309 308 313 313 310 310 308 310 308 300 298 299 298 296 294 293 294 295 296 295 296 296 295 296 296 293 290 290 291 290 290 290 290 289 288 288 287 286 286 285 285 285 284 283 283 282 282 281 281 281 281 281 280 280 280 280 280 280 281 281 282 282 282 282 283 285 287
312 311 313 312 311 314 312 310 312 312 310 310 311 312 312 316 316 313 313 311 311 318 314 306 308 307 308 309 302 299 299 298 296 294 293 294 294 295 295 296 296 296 296 295 294 292 290 289 290 290 289 289 289 288 287 286 286 285 285 284 284 283 283 282 281 281 281 281 280 280 280 280 280 280 280 280 280 280 281 281 281 281 281 282 284 285
318 317 315 310 309 313 313 313 313 311 310 313 312 312 313 317 319 317 316 312 311 317 311 303 305 306 305 308 307 302 298 296 295 294 293 294 294 295 295 295 296 296 295 294 294 294 291 289 288 289 289 289 288 287 286 286 285 284 284 284 283 283 282 282 281 281 280 280 280 279 279 279 279 279 279 280 280 280 281 281 280 280 280 281 282 283
323 320 313 310 311 313 313 315 316 314 312 311 311 314 317 316 315 315 315 314 315 317 310 302 303 305 306 307 305 300 295 294 294 293 294 294 294 295 295 295 296 295 295 294 294 295 292 289 288 289 289 288 287 287 286 285 284 284 283 283 282 282 282 281 281 280 280 279 279 279 278 278 278 279 279 279 279 280 280 280 280 280 280 280 281 282
322 325 319 315 313 312 311 314 320 319 312 310 312 314 315 314 316 317 315 315 317 316 310 303 304 309 310 304 299 295 293 293 294 294 296 295 295 296 295 295 296 294 294 294 294 294 291 289 289 289 288 288 287 286 285 285 284 283 283 282 282 282 281 281 280 280 279 279 279 278 278 278 278 278 278 278 278 278 279 279 279 279 279 279 280 280
317 325 317 308 308 309 309 310 312 316 314 309 308 309 310 313 314 314 312 310 309 308 307 304 306 309 306 298 293 294 293 293 294 294 295 295 295 296 295 295 294 293 293 294 294 293 290 288 289 289 288 287 286 285 285 284 283 283 282 282 281 281 281 280 280 279 279 278 278 278 278 277 277 277 277 277 277 277 278 278 278 279 279 278 279 280
319 323 312 304 306 305 304 306 305 311 315 308 305 308 310 310 309 308 309 306 304 306 307 306 306 306 303 298 293 293 293 292 293 294 293 294 295 295 295 294 294 293 293 293 293 292 290 288 288 288 287 286 285 285 284 284 283 282 282 281 281 280 280 280 279 279 279 278 278 277 277 277 277 276 276 276 276 276 277 277 277 277 277 278 278 279
320 320 310 307 309 302 299 304 303 304 308 307 308 309 306 305 304 306 308 306 304 307 307 305 304 304 305 303 295 293 294 292 292 293 293 294 294 294 295 294 293 292 293 293 292 291 289 288 288 288 287 286 285 285 284 283 283 282 281 281 280 280 279 279 279 278 278 278 277 277 276 276 276 276 275 275 275 275 275 275 276 276 276 277 278 278
319 320 312 305 307 303 300 305 306 302 302 305 307 305 304 306 305 305 307 307 308 309 309 308 305 303 304 303 296 293 293 292 292 293 293 293 294 294 294 293 292 293 293 293 293 292 289 287 288 287 286 285 285 284 284 283 282 281 281 280 280 279 279 279 278 278 278 277 276 276 276 276 275 275 275 275 274 274 274 274 275 275 276 276 277 278
316 321 318 304 302 304 302 305 310 305 300 301 301 299 301 305 305 305 305 306 309 310 310 310 308 306 305 303 298 295 294 292 292 293 294 293 293 294 294 293 293 293 293 293 293 292 289 287 287 287 285 285 284 284 283 282 281 281 280 280 279 279 278 278 277 277 277 276 276 276 276 275 275 275 275 274 274 274 274 274 274 274 275 276 276 278
313 317 319 306 301 305 306 305 309 308 303 300 300 299 299 300 302 306 303 303 305 307 307 308 308 309 306 302 300 298 294 293 293 294 295 294 294 293 293 294 294 293 294 293 292 291 288 286 286 286 285 284 284 283 282 281 281 280 279 279 278 278 278 277 277 276 276 276 276 275 275 275 275 274 274 274 273 273 273 273 273 274 274 275 276 277
314 316 316 310 305 307 309 306 305 307 306 302 301 302 301 300 302 306 305 303 303 304 306 307 308 309 304 298 298 297 294 294 294 294 295 295 294 293 294 294 294 293 293 292 292 291 288 285 285 285 284 284 283 282 282 281 280 279 279 278 278 277 277 276 276 276 275 275 275 275 275 275 274 274 274 273 273 273 273 272 273 273 274 275 275 276
315 314 311 311 311 308 305 303 303 303 303 302 302 303 302 301 302 305 307 306 304 301 302 303 304 305 301 296 295 295 294 294 295 295 295 294 293 293 294 293 293 292 292 291 291 289 286 285 285 284 284 283 282 282 281 280 280 279 278 278 277 277 276 276 275 275 275 275 275 275 275 275 274 274 273 273 273 272 272 272 272 272 273 274 275 275
310 312 311 311 314 308 299 297 298 299 299 300 301 301 301 301 302 304 305 306 305 302 300 301 302 302 299 296 295 294 294 294 294 295 294 293 293 293 294 293 293 292 291 290 290 287 285 284 284 283 283 282 281 281 280 279 279 278 278 277 277 276 276 275 275 274 274 274 274 275 275 274 274 274 273 273 272 272 272 272 272 272 272 273 274 275
311 314 314 313 316 315 306 301 301 299 297 298 300 300 300 300 301 301 302 302 302 302 301 301 303 303 298 296 296 294 294 295 294 293 294 294 294 294 293 293 292 291 290 290 289 287 285 284 283 283 282 281 281 280 279 279 278 277 277 276 276 276 275 275 274 274 274 274 274 274 274 274 274 273 273 273 272 272 272 271 271 271 272 272 273 274
313 314 314 315 318 320 319 316 312 306 299 297 298 299 299 300 300 300 301 302 301 301 301 301 303 302 297 295 295 294 294 294 293 293 293 294 294 293 293 293 291 290 290 289 289 287 286 284 283 282 281 281 280 279 279 278 277 277 276 276 275 275 274 274 274 273 273 273 273 273 273 273 273 273 273 272 272 272 271 271 271 271 272 272 273 274
313 312 310 314 318 318 319 318 312 306 301 300 300 298 298 300 300 300 302 302 301 301 302 301 301 301 299 296 295 294 294 295 293 292 292 293 293 293 292 292 291 290 289 289 288 286 285 284 282 281 281 280 279 279 278 277 276 276 275 275 274 274 274 273 273 272 272 272 273 273 273 273 272 272 272 272 272 271 271 271 271 271 271 272 273 274
312 310 308 311 313 313 316 315 309 305 303 304 302 298 297 299 300 301 301 301 301 302 303 302 302 302 301 299 297 294 294 294 294 293 292 292 293 293 292 291 291 290 289 288 287 285 284 283 282 281 280 279 279 278 277 276 276 275 275 274 274 273 273 273 272 272 271 271 272 272 272 272 272 272 272 271 271 271 271 271 270 271 271 271 272 272
310 311 309 310 310 309 311 311 309 307 305 305 304 300 298 299 300 301 300 300 300 301 303 304 303 302 301 300 298 297 296 295 295 294 293 293 293 292 291 291 290 289 288 287 286 284 283 283 282 280 279 279 278 277 276 275 275 274 274 273 273 273 272 272 271 271 271 271 271 271 272 272 271 271 271 271 270 270 270 270 270 270 270 271 271 271
308 309 309 310 310 309 309 308 307 306 305 305 304 301 299 298 299 299 299 299 299 299 300 301 301 300 300 299 298 298 297 296 294 293 293 293 293 292 292 291 290 289 288 286 285 284 283 282 281 279 279 278 277 276 275 275 274 273 273 272 272 272 271 271 270 270 270 270 270 271 271 271 271 271 271 270 270 270 269 270 270 270 270 270 270 271
306 308 308 308 308 308 308 307 306 305 304 304 304 302 301 299 298 298 298 298 298 299 298 298 298 298 298 298 298 298 297 295 293 293 293 292 293 293 292 290 289 288 287 285 284 283 282 281 280 278 278 277 276 275 275 274 273 273 272 272 271 271 270 270 269 269 269 269 270 270 271 271 271 270 270 270 269 269 269 269 269 269 269 270 270 270
304 306 305 305 307 309 306 304 303 302 301 301 302 302 300 300 299 299 298 298 298 298 298 298 298 298 298 298 298 297 296 294 293 293 292 292 293 292 291 290 289 288 286 284 283 282 281 280 279 278 277 276 275 275 274 273 272 272 271 271 270 270 269 269 268 268 269 269 270 270 270 270 270 270 269 269 268 268 268 268 269 269 269 269 270 270
302 305 305 304 307 307 303 300 300 300 302 304 304 303 301 300 300 300 299 299 298 297 298 298 298 298 298 299 297 296 294 293 293 293 292 292 292 291 290 290 288 286 284 283 282 282 280 279 278 277 276 275 274 274 273 272 272 271 270 270 269 269 268 268 268 268 268 269 269 269 269 269 269 269 269 268 267 267 267 268 268 268 269 269 269 270
301 304 305 305 307 304 299 298 299 302 308 309 305 304 303 301 300 300 300 300 299 298 298 298 298 298 299 298 297 295 294 293 292 292 292 292 292 291 290 289 287 285 284 282 282 281 279 278 277 276 275 274 274 273 272 271 271 270 269 269 268 267 267 267 267 267 268 268 268 268 268 268 268 268 267 267 267 267 267 267 267 268 268 269 269 269
301 303 303 304 305 301 297 299 303 307 310 306 300 300 302 301 300 300 300 300 300 299 298 298 298 298 298 298 297 295 293 292 292 292 292 292 291 291 290 288 286 285 283 282 281 280 278 276 276 275 274 273 273 272 271 270 270 269 268 267 267 267 266 266 267 267 268 268 268 268 267 267 267 267 266 266 266 266 266 267 267 268 268 268 269 269
303 302 303 303 302 301 299 301 307 309 306 304 300 297 297 299 299 299 300 300 299 299 299 298 298 298 298 297 295 293 291 291 291 290 290 290 290 290 288 286 285 284 283 281 280 278 277 275 275 274 273 272 272 271 270 269 268 267 267 266 266 266 266 266 266 267 267 267 267 266 266 266 265 265 265 265 265 266 266 266 267 267 268 268 269 269
304 303 303 302 303 304 303 302 305 306 305 305 303 297 296 297 297 298 301 301 299 298 298 298 298 297 297 295 292 290 290 290 291 290 288 287 288 287 286 285 284 282 281 279 278 277 276 275 274 273 272 271 270 270 269 268 267 266 266 265 265 265 265 265 266 267 266 266 265 265 265 264 264 264 264 265 265 265 266 266 267 267 268 268 269 269
303 303 303 304 304 304 304 304 305 306 307 306 302 297 296 297 297 298 300 299 299 299 297 297 297 296 295 292 289 290 290 291 292 290 286 285 285 285 285 283 281 280 279 277 276 276 275 274 273 272 271 270 269 269 268 267 266 265 265 265 265 264 265 265 265 266 265 264 264 264 263 263 263 263 264 264 265 265 266 267 268 268 268 269 269 270
301 302 302 304 305 303 303 305 305 306 307 304 299 295 295 296 297 299 301 299 298 298 297 296 296 295 293 290 289 290 292 292 293 291 286 284 284 284 284 282 279 277 277 276 275 274 273 272 272 271 270 269 268 268 267 265 265 264 264 264 264 264 264 264 264 264 264 263 263 263 262 262 263 263 263 264 265 266 267 268 268 269 269 269 270 270
301 301 301 302 304 303 303 304 304 305 304 299 295 293 294 295 297 301 304 303 297 295 295 296 295 294 292 290 289 291 292 293 293 291 286 284 284 283 282 281 278 277 276 275 274 273 272 271 270 269 269 268 267 266 265 264 264 263 263 263 263 263 264 263 263 263 262 262 262 262 262 262 263 263 264 265 266 267 268 269 269 270 270 270 271 271
299 301 300 301 302 302 303 303 303 304 302 296 293 293 294 296 298 301 305 303 296 293 293 294 294 292 291 290 290 291 292 292 291 288 284 283 284 282 280 278 277 276 275 274 273 272 271 270 269 268 268 267 266 265 264 264 263 263 263 263 263 263 263 262 262 261 261 261 261 261 262 262 263 264 265 267 268 268 269 269 270 271 271 272 272 272
299 299 300 300 301 300 302 302 301 303 300 294 292 293 294 299 302 302 299 296 294 294 294 293 293 292 290 290 291 291 290 289 286 285 283 283 283 282 279 277 276 275 274 273 272 271 270 269 268 267 267 266 265 264 263 263 262 262 262 262 262 262 262 261 261 260 260 260 260 261 262 263 264 265 266 267 268 268 268 269 270 271 272 273 273 273
300 299 299 300 300 300 300 300 300 303 300 293 292 293 295 299 301 298 295 293 293 294 294 293 293 291 290 291 290 289 288 286 285 284 283 283 283 281 278 276 275 274 273 272 271 270 269 268 267 267 266 265 264 263 263 262 262 261 261 261 261 261 261 260 260 259 259 260 260 262 263 264 265 265 267 267 267 267 268 268 269 271 272 274 275 274
301 301 300 300 300 300 301 300 300 301 297 293 293 295 295 297 296 295 296 295 292 292 293 292 292 290 290 291 290 288 287 286 285 285 284 283 283 281 278 276 274 273 272 271 270 269 268 267 266 266 265 264 263 262 262 262 261 261 261 261 260 260 260 259 259 259 259 260 261 262 263 264 265 266 266 267 267 267 267 268 269 270 271 274 276 276
304 302 303 303 301 301 302 301 299 297 294 293 295 296 296 295 295 296 298 296 292 292 293 292 291 290 290 291 290 289 288 287 286 286 285 284 282 280 277 275 273 272 271 270 269 268 267 266 265 264 264 263 262 262 261 261 260 260 260 260 259 259 259 258 258 258 259 260 261 262 263 264 265 266 266 266 266 266 267 267 268 269 271 273 276 278
303 301 303 304 301 300 302 300 297 296 294 293 295 296 296 295 294 295 297 295 292 292 292 291 291 290 290 291 291 290 289 288 287 285 284 283 281 278 276 273 272 271 270 269 268 267 266 265 264 263 262 262 262 261 261 260 260 260 259 259 259 258 258 257 257 258 259 260 261 263 264 264 265 265 265 265 265 266 266 266 267 268 270 272 274 276
302 300 300 302 301 302 303 301 298 296 294 293 294 295 295 294 293 293 295 294 292 292 291 291 291 290 290 291 291 290 288 287 286 285 283 281 280 278 276 273 271 270 269 268 267 266 265 264 263 262 261 261 261 261 260 260 260 259 259 258 258 257 257 257 257 258 259 260 261 263 264 264 265 265 265 265 265 265 265 265 266 268 270 271 272 273
303 300 299 300 301 302 303 300 297 295 294 293 293 294 293 293 292 292 293 293 292 291 291 291 291 290 290 290 290 289 287 286 285 284 282 280 278 276 275 272 270 269 268 267 266 265 264 263 262 261 260 260 260 260 260 259 259 258 258 258 257 257 256 257 257 258 259 260 261 263 263 264 264 264 264 264 264 264 264 265 266 267 268 270 271 272
301 300 300 300 300 301 301 299 295 295 295 293 293 293 293 293 292 292 292 292 292 291 290 290 290 289 289 288 288 288 287 285 284 283 281 279 277 275 272 270 269 268 267 266 265 265 263 262 261 260 260 260 260 259 259 259 258 258 257 257 257 256 256 256 257 258 259 260 261 262 263 264 264 264 263 263 263 263 263 264 265 266 267 268 269 271
300 301 300 300 301 302 302 299 297 297 298 295 292 293 293 293 292 292 292 291 291 290 290 290 288 286 287 287 286 287 287 284 281 281 280 277 275 273 270 268 267 267 266 265 264 264 262 261 260 260 259 259 259 259 258 258 258 257 257 257 256 256 256 256 257 258 259 260 261 262 263 263 263 263 263 263 263 263 263 263 264 265 266 267 268 270
303 304 302 301 303 304 302 300 298 299 299 296 293 293 293 292 292 292 291 291 290 289 289 289 287 285 285 284 283 284 286 283 279 279 278 275 272 270 269 268 267 266 265 265 264 262 261 260 259 259 259 259 259 258 258 258 258 257 257 256 256 256 256 256 256 257 258 260 261 262 263 263 262 262 262 262 262 262 262 262 262 263 265 266 267 268
Wind_Speed
4 4 3 2 4 4 3 4 6 5 5 4 4 4 6 6 6 6 4 4 2 3 6 6 6 5 6 8 8 7 7 8 9 9 7 6 6 5 5 5 4 4 1 4 5 6 13 18 19 21 23 25 27 28 30 31 31 32 33 34 35 36 39 40 41 41 40 40 40 41 42 43 46 45 43 42 43 43 43 42 40 41 41 41 41 40
5 4 4 7 8 6 5 5 5 4 3 4 4 4 6 5 7 8 5 4 1 1 5 5 5 7 7 8 8 8 9 10 10 10 8 7 7 5 6 6 4 3 0 3 2 4 12 17 19 21 23 26 27 28 29 29 30 32 32 33 36 38 40 40 39 38 38 40 40 40 40 42 45 44 40 41 43 44 44 43 41 41 41 41 41 41
5 4 7 8 6 4 3 4 5 4 4 4 4 3 5 5 5 6 3 2 1 1 4 5 6 8 8 7 8 10 9 8 7 9 9 8 8 5 6 6 4 2 1 3 4 5 11 15 17 20 24 25 24 25 27 28 30 31 31 34 37 39 40 40 39 37 39 43 42 40 39 41 42 44 44 46 47 46 45 44 41 40 40 40 41 41
4 5 7 6 5 3 2 2 4 3 4 5 4 3 5 4 2 4 3 3 4 3 4 6 8 7 5 3 5 7 5 5 5 8 8 7 8 7 7 6 5 4 3 4 5 5 8 12 15 18 21 21 22 25 27 28 30 31 33 36 38 39 40 39 38 39 42 44 42 41 43 44 43 44 47 48 47 44 42 42 41 39 40 41 40 39
6 7 4 4 5 5 2 2 2 4 4 5 6 6 6 5 4 6 3 5 6 5 5 7 8 6 6 7 6 3 3 6 6 7 7 6 7 7 6 6 6 5 5 4 4 4 5 8 11 15 17 19 21 24 26 28 30 32 34 36 36 37 37 37 38 40 43 43 42 44 46 46 44 42 40 37 38 39 40 42 42 41 40 40 39 39
7 5 4 5 3 3 3 3 3 6 4 5 5 7 6 5 4 5 4 5 4 5 4 2 5 6 5 10 8 4 5 6 6 7 8 6 6 6 6 6 5 5 5 4 3 3 3 6 9 12 16 20 22 24 26 29 31 33 34 34 34 35 36 38 40 42 43 42 42 42 41 40 39 37 35 30 31 37 42 45 46 45 43 41 40 39
3 1 4 5 4 3 2 4 4 6 3 4 5 5 5 4 2 4 2 2 2 4 3 3 2 6 2 6 9 7 8 9 6 7 8 7 6 6 6 5 6 5 4 3 3 3 3 6 7 10 16 21 22 24 26 29 31 32 33 31 32 35 37 38 40 42 41 40 41 41 39 38 34 34 36 36 35 38 42 44 43 42 41 41 41 40
3 2 2 3 4 3 4 5 5 6 6 4 4 5 4 2 3 5 3 3 4 3 4 2 4 6 6 6 9 10 9 8 8 8 8 7 7 7 6 6 6 6 5 4 3 4 5 6 7 11 17 21 22 23 26 28 30 31 31 31 32 35 36 37 39 40 39 37 38 39 39 39 36 34 37 40 40 39 40 41 39 38 39 40 41 40
3 3 4 4 3 3 5 5 6 7 4 5 5 5 3 5 6 5 4 6 3 3 5 5 4 5 8 4 5 9 9 9 11 11 9 8 8 7 7 6 6 6 5 5 4 5 6 5 9 13 19 22 22 23 26 28 29 30 31 31 33 34 35 36 38 38 37 36 36 35 36 37 37 37 38 41 41 39 39 40 39 39 39 39 40 40
2 4 6 7 4 5 6 5 6 7 3 4 4 3 3 4 6 4 5 4 1 1 7 6 7 4 6 2 4 6 7 10 11 10 8 8 8 8 7 7 6 5 4 4 5 6 5 5 11 16 19 21 21 24 27 28 29 30 32 33 33 34 35 36 37 37 36 36 35 34 36 37 38 38 39 40 40 39 38 37 36 36 36 37 38 38
2 0 2 4 4 5 5 3 3 5 4 1 1 2 4 4 3 1 2 0 2 4 8 6 9 7 5 3 6 6 6 9 11 9 8 8 8 8 7 6 5 5 5 4 5 7 4 7 13 18 19 19 21 24 27 29 30 31 32 33 34 35 35 35 36 37 36 36 35 35 36 38 38 37 37 37 39 39 36 33 33 35 36 37 37 37
3 1 1 1 2 4 5 1 1 1 2 3 3 3 4 5 3 4 3 3 1 6 6 4 6 7 6 5 6 6 4 8 14 12 12 10 8 8 6 6 6 5 5 4 6 6 2 9 14 17 17 18 20 23 26 28 30 31 32 32 34 36 36 36 37 37 37 36 35 36 37 37 37 36 35 36 39 38 34 32 32 33 35 36 36 36
2 4 3 1 0 4 6 1 3 4 4 4 3 4 3 5 3 3 3 0 3 6 4 1 0 4 8 7 6 8 5 8 13 12 12 11 8 8 6 6 5 4 5 5 5 2 4 8 11 14 14 16 18 21 25 28 30 31 32 33 34 36 36 38 39 39 38 37 36 36 37 37 36 36 36 36 36 36 34 33 32 32 34 36 35 36
3 5 2 1 2 2 6 4 2 1 2 4 3 3 2 1 3 4 3 2 4 6 4 2 1 3 5 5 6 8 6 8 10 10 10 9 9 8 7 6 6 5 6 6 2 3 5 6 10 12 13 14 17 22 25 28 30 31 32 33 35 37 38 38 40 40 40 39 37 37 37 37 36 36 36 36 36 36 36 35 34 33 33 34 35 36
2 6 3 4 2 3 5 5 5 4 3 4 4 5 4 4 2 4 3 4 6 6 4 2 2 4 3 3 4 5 7 7 8 8 8 8 8 7 6 6 6 6 5 2 3 5 4 7 11 12 13 14 17 22 25 27 29 30 32 34 35 37 38 38 39 41 42 41 40 39 39 38 36 35 36 38 39 38 37 37 35 34 32 34 36 37
3 6 4 1 0 4 4 3 3 6 2 2 3 4 2 5 4 3 3 4 2 6 5 3 3 5 3 3 1 6 7 7 7 7 8 7 7 6 6 6 6 4 2 3 4 2 4 8 11 12 13 15 19 23 26 27 29 30 32 35 36 37 38 38 39 40 41 41 40 40 40 38 37 37 38 40 40 39 37 37 36 34 34 37 38 38
2 5 2 2 2 2 2 2 1 2 1 1 2 2 4 4 4 2 3 1 2 4 6 3 4 4 1 2 2 7 7 7 7 7 8 8 7 7 6 6 5 3 1 2 1 2 5 7 11 11 10 14 20 24 26 28 29 30 32 34 35 38 39 40 41 41 39 39 40 41 40 39 38 39 39 39 40 40 40 39 38 37 38 39 40 40
2 4 3 2 1 2 2 1 2 1 2 4 3 4 3 2 3 2 1 3 2 4 6 3 6 6 1 2 4 6 8 9 8 7 8 8 7 7 6 6 4 3 2 1 2 3 5 7 11 10 10 15 20 24 27 28 29 31 32 32 33 36 37 39 41 41 38 37 39 40 40 40 40 39 39 39 40 42 42 42 41 40 40 40 40 41
1 3 4 1 2 2 1 2 1 2 1 3 2 2 2 1 2 2 2 2 1 6 7 2 5 7 5 5 7 11 13 12 9 8 8 8 7 6 6 5 3 2 3 3 3 4 5 8 10 10 11 17 21 23 25 26 29 31 32 32 32 34 34 35 38 38 37 37 37 38 39 40 40 40 40 41 42 43 44 43 42 40 40 40 40 39
2 1 4 1 2 1 2 1 3 2 0 2 1 1 1 2 3 2 2 2 2 5 7 5 6 4 6 7 12 16 15 14 11 8 8 8 7 7 6 5 4 4 5 4 4 4 5 7 9 9 13 18 21 23 24 25 29 31 32 32 33 34 35 35 37 37 37 38 37 39 40 41 41 41 42 43 42 43 43 42 41 40 40 39 39 38
2 2 4 2 2 1 2 4 7 7 4 3 2 2 2 2 1 1 2 3 3 5 4 5 9 6 4 4 10 14 14 14 12 9 8 7 7 7 6 6 5 5 4 4 4 4 6 6 7 9 14 19 20 22 23 25 28 30 31 32 33 34 35 36 37 38 39 39 39 40 42 44 44 43 43 43 42 43 43 42 40 39 39 39 38 39
2 3 4 1 2 4 5 5 6 7 7 6 6 6 7 5 3 2 5 3 3 5 4 3 12 10 3 3 6 9 11 12 11 9 7 7 8 8 6 6 6 5 5 5 5 5 5 5 6 11 16 19 20 22 24 26 27 29 31 33 33 33 34 35 37 38 39 40 40 42 44 46 45 44 44 44 42 41 41 41 41 40 40 39 39 39
2 2 3 5 5 5 4 2 1 2 3 3 4 5 6 6 6 6 7 4 2 3 2 5 12 10 1 4 6 8 10 10 9 8 7 6 8 7 6 6 5 5 5 5 5 5 5 4 8 13 17 19 20 22 24 26 27 28 31 33 34 34 35 36 37 38 39 40 41 43 45 46 46 45 45 43 41 40 41 42 43 40 39 39 39 39
1 2 3 6 5 1 1 2 4 4 3 1 4 5 6 8 9 8 5 1 1 3 4 5 11 8 1 2 5 7 8 8 7 7 8 7 6 6 6 6 5 5 5 4 5 4 3 5 10 13 16 18 20 22 24 25 27 29 32 33 34 35 36 37 38 39 40 41 43 44 44 44 45 44 43 42 41 41 42 42 42 40 38 38 38 38
3 2 3 3 6 5 3 2 3 2 1 4 4 5 8 10 7 3 2 2 2 9 9 7 12 9 1 2 5 7 7 7 6 6 8 8 6 5 5 5 5 6 4 3 4 3 2 5 8 11 15 17 19 22 25 26 28 29 31 32 33 35 37 38 38 39 40 42 43 45 45 44 43 42 42 42 42 42 42 41 41 40 38 37 38 38
4 3 5 4 7 9 10 7 3 2 3 3 3 7 11 11 10 7 3 3 6 11 10 10 13 10 2 4 6 7 8 7 6 6 6 6 6 6 6 5 5 3 1 3 3 2 3 5 7 11 15 17 19 22 24 27 29 30 32 33 32 34 37 38 38 38 39 40 41 43 45 44 42 42 42 44 42 41 41 41 40 38 36 35 35 34
2 2 7 10 11 13 15 11 1 5 4 4 5 11 12 12 15 11 4 6 8 5 8 15 16 14 10 6 7 7 8 8 6 7 6 6 6 7 6 5 4 2 1 3 2 3 4 6 8 12 15 17 19 22 24 27 29 30 33 35 35 35 35 36 38 39 39 39 41 43 42 41 41 41 42 44 43 41 41 40 37 35 33 32 30 30
3 5 10 14 18 20 20 15 3 4 7 10 8 10 12 13 16 14 12 14 7 3 13 22 15 15 19 13 9 10 10 9 7 8 8 7 7 6 5 4 2 2 2 1 2 4 6 7 8 11 15 17 20 23 25 26 29 30 32 34 35 35 35 36 37 38 40 40 40 40 41 42 42 42 42 43 42 41 40 37 34 33 32 32 31 32
3 8 11 12 17 22 19 15 10 7 11 15 12 10 12 16 19 19 22 22 11 8 20 23 13 15 19 14 11 12 11 9 8 9 8 6 6 5 5 3 1 2 1 1 3 4 6 7 8 10 14 18 20 23 25 26 29 31 33 34 35 34 34 36 37 38 41 41 39 39 43 45 42 42 44 42 40 40 39 36 35 34 34 34 33 33
3 7 8 7 12 20 17 12 11 11 13 19 17 12 14 18 20 21 23 23 18 19 26 25 20 21 18 14 12 9 8 7 7 7 6 6 6 6 5 3 2 2 0 2 3 5 5 6 8 10 15 18 19 22 25 26 29 31 33 34 35 35 35 36 38 39 39 39 41 44 45 44 41 41 42 40 40 41 38 35 35 36 35 34 33 33
3 3 2 4 7 17 15 9 10 11 13 20 21 16 17 18 19 20 22 19 17 22 28 25 21 23 20 14 10 6 7 7 7 8 7 7 7 6 5 3 3 2 2 2 3 5 6 6 7 10 13 16 19 22 24 26 29 30 32 33 33 35 36 36 37 38 37 38 44 47 45 43 41 40 40 39 41 42 37 32 33 34 34 34 34 33
5 3 2 4 4 10 6 3 6 6 8 19 25 21 19 19 19 19 18 18 18 20 23 19 16 19 15 5 3 6 9 10 10 10 8 6 6 6 5 4 3 4 2 2 4 5 6 7 7 9 13 16 20 22 24 27 29 30 31 33 35 36 37 36 35 35 36 40 46 48 45 42 40 39 40 40 39 40 37 32 32 33 33 34 33 31
5 4 2 4 4 5 1 4 2 2 4 15 19 17 20 23 23 19 16 20 21 17 15 14 16 17 9 4 6 7 9 10 10 8 7 6 6 6 5 5 5 5 3 1 3 5 6 6 8 10 14 18 21 23 25 27 28 29 31 34 36 36 36 36 35 35 37 40 43 45 43 40 37 38 42 42 38 36 34 31 31 32 32 32 31 30
7 8 4 4 3 2 1 4 4 0 9 12 5 5 16 23 24 22 22 25 22 16 15 17 17 14 7 6 9 9 9 9 8 7 7 7 6 5 5 5 5 4 2 0 3 4 5 7 10 13 16 19 22 25 26 26 26 28 31 33 35 35 35 36 37 38 40 41 43 44 42 38 37 39 44 46 42 39 36 33 33 33 31 31 31 29
9 8 4 3 2 2 2 3 2 6 11 6 3 3 9 15 18 21 24 27 22 17 19 22 21 18 12 8 7 8 8 7 7 7 6 7 6 6 6 5 5 4 2 1 3 4 5 8 12 15 17 20 23 24 26 26 27 29 31 32 33 34 34 35 37 38 40 41 42 42 40 37 38 40 42 42 40 38 37 35 35 34 31 30 29 28
10 8 4 3 2 2 2 4 7 8 12 11 4 5 5 4 8 10 16 23 20 17 19 20 22 21 14 6 5 7 8 7 6 3 3 5 6 7 8 6 5 4 3 2 3 3 5 9 12 14 17 20 23 24 25 26 27 30 32 33 32 33 34 34 36 37 39 41 42 43 41 39 39 40 41 41 39 37 36 36 35 33 31 29 29 28
9 8 5 4 4 4 4 7 7 8 18 19 10 6 7 6 8 9 10 17 13 14 17 18 19 18 9 6 7 7 8 7 3 1 1 4 7 7 7 7 6 5 5 4 2 3 6 9 12 14 18 21 23 25 25 26 29 30 32 32 32 33 34 34 34 36 39 40 41 42 42 40 39 41 42 41 39 37 39 39 37 33 30 27 27 27
8 8 6 6 5 4 4 6 5 7 12 9 2 3 6 7 7 7 4 11 6 14 17 18 17 13 6 9 8 8 7 4 3 3 3 5 7 7 7 6 7 7 6 3 1 4 7 9 12 15 18 21 23 24 24 27 29 29 29 31 31 33 33 33 34 38 41 41 40 42 43 42 42 42 41 40 38 37 42 46 45 41 34 26 25 26
6 4 3 4 5 4 5 6 6 9 10 3 2 2 4 7 8 7 2 9 6 12 15 14 12 9 10 12 10 8 7 5 6 5 6 8 7 7 7 6 7 8 7 3 1 3 6 10 13 16 19 21 22 24 25 27 28 27 27 29 30 31 31 32 36 39 41 40 41 43 44 43 44 45 44 44 44 43 46 50 50 46 38 30 27 26
5 3 2 5 8 7 7 6 5 8 8 3 4 3 5 8 9 7 3 8 4 6 8 9 9 8 12 12 10 8 7 7 6 5 8 9 6 6 7 7 7 8 6 4 2 3 7 10 12 15 19 21 22 24 26 26 26 25 26 27 28 29 30 33 38 40 39 39 41 45 46 46 48 50 49 48 48 48 48 47 44 41 38 35 32 27
3 3 4 7 9 8 9 7 6 8 6 5 8 8 9 9 7 2 7 6 4 5 6 7 9 9 11 12 9 7 5 3 5 8 10 9 7 6 7 8 10 8 6 4 2 5 7 9 11 13 17 20 23 25 25 25 25 25 26 27 27 29 32 36 38 38 37 40 43 46 48 48 48 47 45 43 43 44 44 42 39 36 35 35 33 26
4 3 4 6 6 6 7 6 5 9 6 10 13 11 11 7 2 7 5 2 6 7 6 7 8 10 12 11 8 6 4 6 9 10 10 9 8 7 7 9 10 8 6 4 3 6 7 8 11 13 17 20 23 24 24 24 24 24 25 26 27 31 35 37 38 36 37 42 45 45 46 47 46 44 42 40 40 40 40 39 36 33 31 31 31 26
7 5 4 6 5 3 3 4 4 8 7 17 18 10 9 7 5 4 4 3 4 7 7 6 7 8 10 9 6 6 8 9 9 9 9 8 7 8 7 7 8 7 5 3 3 5 6 8 10 12 17 19 21 22 22 21 22 23 24 26 29 33 35 37 38 38 39 42 44 43 45 47 46 43 39 39 40 40 37 35 34 32 30 29 29 25
7 7 5 6 6 5 5 9 7 4 8 20 17 10 12 11 4 6 7 4 3 4 5 5 6 7 10 9 8 8 9 9 8 8 8 7 6 7 7 7 8 7 5 3 3 4 6 8 9 13 17 18 19 20 20 20 22 23 24 27 32 35 36 37 39 39 39 41 41 41 44 46 45 42 38 38 41 39 34 33 33 33 29 28 26 21
11 11 5 3 7 8 6 9 6 2 9 17 11 4 9 10 5 7 9 6 4 5 5 6 7 8 9 10 9 8 7 8 8 8 8 7 7 7 6 7 8 7 5 4 3 3 6 7 9 13 17 18 17 17 18 20 22 24 26 30 33 35 37 39 40 39 39 40 40 40 42 44 44 42 39 38 39 37 32 32 33 31 28 27 25 19
8 7 2 1 4 6 8 9 6 4 8 15 10 1 5 7 6 6 8 7 6 6 6 7 9 9 9 9 9 7 7 8 8 7 7 7 7 7 7 7 8 7 6 4 2 4 6 8 11 12 15 18 17 17 18 21 22 23 27 31 33 35 37 39 39 38 38 39 39 40 41 41 42 41 38 38 39 36 32 31 31 29 27 26 25 22
4 6 5 3 4 4 6 8 9 9 11 14 11 4 4 6 6 7 7 7 7 8 8 9 10 10 9 9 10 9 8 8 9 7 7 7 7 7 7 6 7 8 6 4 2 3 6 9 11 12 14 17 17 17 20 22 22 23 27 30 32 34 37 37 36 36 37 37 38 38 39 38 39 40 38 37 37 34 33 32 30 28 27 26 25 24
4 8 8 10 10 9 6 3 5 7 10 12 11 7 6 7 8 6 6 6 8 8 8 8 9 9 9 8 10 10 8 8 9 8 7 6 6 7 6 6 8 9 6 4 3 4 7 8 10 11 13 15 17 19 21 22 23 25 27 29 31 34 35 35 35 34 35 35 35 36 37 36 36 38 39 37 34 32 31 32 32 30 27 27 26 25
6 8 8 9 11 11 11 4 6 4 5 9 12 11 9 9 9 7 6 6 9 9 8 7 7 8 9 10 10 10 9 9 9 9 9 7 6 6 7 8 10 9 6 4 4 4 6 7 9 11 12 14 17 19 21 23 24 26 27 29 32 33 33 34 34 33 32 33 33 34 36 36 36 36 37 37 37 33 29 28 30 30 29 30 30 29
8 9 7 6 9 13 15 12 12 7 6 9 14 15 11 9 10 10 8 8 10 11 10 9 6 4 6 8 9 10 10 9 8 9 9 7 7 8 9 11 11 9 6 5 4 4 6 7 7 9 12 14 16 19 21 23 24 26 28 30 32 32 32 33 32 31 30 31 32 33 34 35 36 36 34 35 38 37 33 32 33 30 27 30 34 35
13 15 13 12 12 13 12 13 14 10 7 6 12 15 12 9 11 12 11 11 12 12 12 12 10 6 5 6 7 10 11 9 9 10 8 7 8 10 12 13 11 9 8 6 4 4 5 6 7 9 11 14 16 18 20 22 24 26 28 30 31 31 31 31 29 28 29 30 30 31 31 31 33 34 32 31 35 36 34 36 39 39 36 35 35 36
Wind_Direction
94 44 355 212 212 208 206 187 186 212 203 216 249 245 252 256 270 267 253 263 196 188 249 226 233 245 211 211 198 172 153 146 148 146 146 142 139 142 137 144 150 152 114 38 57 38 18 12 9 5 360 356 353 352 350 348 346 344 342 338 336 335 333 331 329 327 327 326 325 321 318 316 314 312 309 307 305 303 298 294 293 294 293 289 286 285
57 20 267 212 205 198 202 210 192 207 228 240 239 250 266 249 259 265 232 234 207 183 263 246 251 265 251 229 196 172 164 166 166 155 152 149 148 152 142 148 150 152 262 10 7 3 12 10 7 2 357 355 352 351 349 347 346 344 343 340 336 334 332 329 327 326 326 326 323 319 316 316 315 313 312 310 308 305 300 295 292 292 291 288 286 285
8 298 246 214 197 193 229 221 185 202 225 236 246 261 272 255 269 281 244 208 344 288 268 275 266 256 257 239 191 180 177 175 170 153 151 150 147 155 147 148 149 146 282 320 317 345 8 6 3 359 356 354 351 350 349 347 346 344 343 341 336 333 331 328 327 328 328 326 323 321 318 318 316 313 312 310 308 307 303 298 295 292 290 288 287 285
319 260 231 198 166 159 272 236 177 213 246 235 241 252 261 258 270 279 287 320 317 277 253 275 274 251 239 212 182 193 172 140 145 142 147 152 150 163 163 156 156 166 221 278 303 331 360 358 357 355 351 351 351 351 350 348 347 345 341 338 335 332 330 328 328 329 329 327 324 322 319 317 314 310 310 308 306 305 304 303 300 296 291 287 285 284
264 253 197 150 158 159 189 275 177 198 259 254 222 221 247 252 237 240 279 327 324 310 279 280 289 263 194 181 187 192 131 132 146 139 144 162 161 157 153 162 169 173 197 222 269 299 338 345 344 348 348 351 353 351 350 349 347 342 338 335 332 332 331 329 329 330 330 328 325 324 322 321 318 313 312 311 310 310 309 307 305 302 298 290 283 282
262 249 134 139 186 154 167 247 216 187 233 285 239 219 221 205 223 262 329 359 341 310 285 245 292 287 197 183 188 171 157 166 162 152 160 175 172 154 148 169 181 186 196 196 219 259 309 319 325 344 353 354 351 350 351 349 344 339 335 333 332 332 332 331 331 331 331 329 327 326 324 323 320 315 312 311 312 313 312 308 302 300 301 297 289 285
255 211 108 139 176 161 201 249 231 181 169 283 248 186 164 148 203 274 323 17 273 266 274 139 223 281 255 186 194 181 180 184 175 173 178 181 178 167 165 173 179 192 202 212 242 262 283 293 316 349 358 355 350 350 350 346 341 337 333 332 332 331 331 332 331 331 330 327 325 323 321 318 313 309 306 307 309 309 309 307 301 298 301 301 297 288
177 128 93 122 142 179 230 252 225 161 143 246 232 136 130 160 246 248 213 224 239 274 295 205 203 273 279 228 199 178 179 190 189 191 189 184 182 173 174 176 179 193 196 201 245 265 259 281 334 359 359 356 352 349 346 342 338 335 332 331 330 330 330 331 331 329 327 325 322 320 318 315 311 308 306 307 307 307 308 307 305 304 303 304 302 295
184 175 202 169 145 203 224 226 190 144 147 244 205 157 180 209 230 232 215 239 268 354 284 224 174 262 272 248 175 167 185 204 198 194 189 182 180 175 176 182 185 197 200 193 209 238 253 303 358 4 358 355 351 347 343 339 336 333 332 330 328 329 329 330 330 329 327 325 322 319 317 314 311 309 308 308 306 306 309 307 305 306 304 303 303 302
243 198 191 153 160 221 223 216 172 146 196 241 188 202 247 233 238 226 219 249 26 337 262 219 167 223 264 235 141 165 210 216 199 188 186 180 179 176 174 187 197 201 211 213 215 233 263 345 4 2 358 353 348 344 340 337 336 333 331 329 328 328 327 328 330 330 327 326 323 320 317 313 310 309 308 308 306 305 306 305 307 309 306 305 304 303
299 145 157 139 183 199 175 191 173 158 195 213 62 334 328 296 272 153 198 70 65 262 261 223 187 201 267 245 165 184 223 197 177 174 183 181 175 175 177 187 195 197 210 223 230 240 281 8 9 2 356 349 343 340 339 338 335 333 330 329 327 325 325 327 329 330 328 327 325 321 318 314 310 309 308 309 309 307 305 306 310 312 308 305 303 302
356 348 246 202 192 128 112 127 316 62 77 71 60 33 352 315 351 33 2 54 109 257 263 243 207 197 238 247 196 224 245 170 168 173 176 175 173 177 184 190 190 192 204 217 231 240 323 15 8 360 351 343 338 337 338 337 334 332 330 329 326 324 325 326 328 330 329 328 327 324 321 317 313 310 308 307 308 308 306 307 310 311 310 306 304 303
296 241 248 4 303 131 117 83 339 7 51 81 78 62 14 329 355 354 313 171 221 249 240 206 152 212 237 249 216 221 222 166 166 165 164 164 168 178 186 193 192 191 204 217 230 261 25 18 360 351 341 335 335 336 337 335 333 331 329 328 326 323 324 326 329 331 330 328 326 325 322 319 316 312 309 306 306 307 306 306 308 309 309 307 304 303
302 296 289 103 287 166 140 154 237 284 125 137 135 116 122 7 334 288 263 266 273 270 244 195 6 275 260 277 230 197 172 152 147 145 155 157 161 178 188 187 187 193 207 214 211 34 29 1 346 339 330 331 334 336 336 333 332 330 328 327 325 322 324 327 329 330 329 327 325 325 322 319 317 314 312 309 306 307 307 305 304 304 305 304 303 301
254 300 255 180 230 176 164 183 174 147 147 185 164 134 150 160 218 257 229 249 280 288 263 228 275 236 206 294 266 163 138 135 135 140 150 154 164 176 178 173 182 197 203 182 63 45 6 341 338 330 325 331 335 335 334 332 331 329 327 327 324 323 325 327 329 329 328 326 324 324 323 320 317 314 313 310 307 307 306 304 302 301 302 302 301 299
205 258 247 203 258 143 171 220 148 112 98 249 136 111 182 178 180 231 208 200 282 306 274 204 222 222 190 319 355 125 133 135 140 148 146 159 176 168 165 174 183 191 171 63 58 23 325 330 332 324 323 332 335 333 331 329 329 327 326 326 325 324 324 326 328 327 325 323 322 323 323 321 319 316 314 311 308 307 305 304 303 301 302 301 299 299
240 269 267 23 3 119 165 224 139 109 156 204 140 176 224 171 139 214 264 18 45 299 268 199 245 273 347 302 180 141 150 152 157 164 158 173 179 162 170 184 180 163 87 54 87 288 298 317 324 320 323 333 334 331 328 327 327 325 324 325 324 323 324 325 325 324 322 321 321 322 322 321 320 318 315 312 310 308 306 304 303 302 302 301 298 297
224 274 251 144 228 234 195 119 31 7 133 141 184 218 203 117 103 128 280 342 42 269 266 199 241 257 174 225 214 174 178 181 183 179 171 180 173 167 181 178 165 146 133 210 232 264 286 311 319 318 324 332 331 327 325 324 323 323 322 322 322 322 322 323 324 322 320 320 320 320 320 320 320 317 315 312 310 308 306 303 302 302 301 300 298 297
127 274 275 170 200 258 22 59 347 320 104 131 208 233 120 168 233 130 156 251 229 267 274 231 243 241 195 190 195 194 196 191 191 184 177 185 176 173 181 169 168 182 189 219 243 259 281 306 314 319 326 328 327 324 323 321 321 322 321 320 320 320 319 321 321 319 317 318 318 317 317 318 317 317 315 312 310 309 307 303 301 301 300 300 299 296
106 219 274 294 235 273 38 89 205 223 33 57 18 331 75 192 215 160 163 190 201 261 275 291 295 254 199 187 185 196 198 186 185 185 180 190 186 175 172 170 188 200 204 222 234 246 273 299 312 322 325 324 325 323 321 321 321 321 320 319 320 320 319 320 320 318 317 317 317 316 316 317 316 316 315 312 310 308 307 304 302 301 300 299 299 297
93 195 245 317 328 244 186 201 197 188 173 140 167 201 200 186 172 234 225 158 184 244 257 291 286 257 192 186 185 190 193 182 179 181 184 191 179 170 170 173 185 191 204 223 225 244 273 292 309 321 323 324 324 322 321 321 321 320 319 319 320 320 319 320 320 319 318 317 318 317 317 317 316 315 315 313 310 307 306 306 303 301 301 298 297 298
154 193 223 243 235 222 227 223 200 188 180 178 185 189 195 192 152 243 256 197 189 234 201 235 271 262 197 178 182 174 180 180 174 174 181 181 169 171 176 172 176 187 203 216 223 249 269 284 311 322 326 328 325 323 323 323 322 320 320 320 321 320 318 318 319 320 319 318 317 317 317 317 315 314 315 313 310 307 305 306 305 302 301 298 296 298
155 145 226 249 239 233 258 288 120 163 168 187 211 192 183 184 172 205 240 224 186 232 192 231 266 272 175 159 172 164 168 171 170 168 166 172 173 170 174 175 179 194 203 211 226 248 263 298 325 328 330 330 327 326 324 323 322 321 321 322 321 319 318 319 320 319 319 318 317 318 318 317 315 314 313 312 310 307 305 305 306 304 300 298 297 297
149 133 219 264 279 293 344 15 33 44 63 241 239 191 183 203 201 209 229 180 155 218 192 230 258 265 298 157 164 153 159 161 166 167 159 168 177 165 170 182 190 202 209 220 237 248 277 324 332 331 332 330 328 326 324 322 322 322 322 322 321 319 319 320 321 320 321 320 318 319 319 318 317 314 313 313 310 307 306 305 305 304 301 298 297 296
199 178 167 276 301 295 291 331 347 358 167 228 230 185 202 215 203 226 264 94 231 233 211 228 258 254 221 151 161 151 164 171 170 169 160 160 169 170 177 189 195 200 211 246 263 276 325 331 330 330 331 329 326 325 323 322 323 323 322 322 321 320 320 321 321 321 321 321 319 319 319 318 316 313 312 313 311 308 307 306 305 304 301 298 296 295
190 185 169 204 265 270 274 282 282 212 201 226 220 196 205 201 188 203 220 169 231 236 211 220 248 251 195 154 186 183 181 182 167 159 160 157 167 179 184 190 191 185 260 300 296 330 336 321 327 332 331 328 325 324 323 323 324 324 322 322 322 322 321 320 320 320 320 321 320 319 317 315 315 315 314 313 312 309 307 307 306 304 302 300 296 294
141 221 206 212 232 244 257 266 200 120 187 221 207 204 202 195 197 201 190 209 222 228 234 234 237 249 252 212 195 200 196 194 178 163 167 172 179 182 177 175 161 109 334 296 311 346 332 325 330 333 330 326 324 324 324 323 323 324 324 323 323 323 321 319 320 320 320 320 320 319 318 315 313 313 313 313 311 309 307 307 304 302 302 301 297 295
113 244 224 218 233 243 253 263 241 142 236 248 230 209 200 198 204 204 213 224 203 122 254 249 230 238 253 241 211 210 208 203 189 175 180 182 179 173 158 147 105 23 304 304 22 351 334 331 330 328 325 324 325 324 324 324 324 325 324 322 322 322 321 320 320 320 320 319 317 315 316 316 311 307 309 312 312 309 307 305 303 301 301 299 296 294
145 246 234 215 238 250 255 265 262 247 257 261 250 216 204 208 208 211 224 228 208 201 248 256 242 235 248 246 227 217 208 204 191 180 180 167 155 148 132 117 33 315 286 25 13 342 334 329 325 323 322 325 326 325 325 326 326 326 323 321 322 322 321 321 320 319 319 318 314 313 315 316 313 309 310 312 311 310 309 305 301 299 299 297 294 292
158 250 239 207 247 260 258 258 258 256 261 264 256 226 217 223 217 218 230 233 226 233 248 259 263 259 257 249 238 218 191 188 173 162 161 150 150 152 141 148 232 243 139 44 352 330 328 322 317 320 323 325 325 325 327 328 327 325 322 321 322 322 321 322 321 318 316 314 313 314 316 315 310 306 308 310 310 310 309 305 301 299 297 296 294 292
219 240 193 155 253 267 262 246 242 245 251 261 260 236 224 234 231 228 234 235 233 240 248 254 262 266 264 254 242 209 162 153 152 162 166 160 159 152 152 182 201 153 91 29 329 318 321 318 319 322 322 321 322 327 329 328 325 322 321 321 321 321 322 321 319 317 314 312 314 315 315 314 311 308 309 313 313 311 307 302 301 299 297 296 294 292
216 227 81 115 234 263 267 217 237 256 263 266 264 246 226 229 234 231 232 231 226 233 247 252 252 257 260 245 187 175 156 155 169 171 163 163 162 152 165 189 164 127 105 335 318 320 321 320 321 320 317 320 326 331 331 327 324 322 321 322 321 321 321 320 319 316 312 312 315 317 316 315 311 307 306 307 310 311 306 299 297 297 295 294 293 292
184 201 178 152 215 269 23 108 129 37 299 269 261 236 216 221 232 236 239 238 229 223 238 242 238 247 250 140 152 176 166 171 180 170 160 166 166 163 175 171 145 142 154 265 311 314 314 312 312 313 318 326 331 330 328 325 322 321 321 321 320 320 320 320 319 316 313 312 314 315 315 313 310 308 309 308 307 306 304 298 295 294 293 292 291 290
186 200 204 175 187 247 144 113 93 350 261 266 279 189 199 209 220 228 236 240 231 217 228 241 246 254 244 182 183 186 179 180 171 158 160 158 156 166 171 152 139 145 150 294 302 303 303 305 312 319 326 331 330 326 324 323 321 320 320 319 318 319 320 320 319 318 316 315 314 314 315 314 311 309 310 311 310 306 303 300 297 294 289 288 286 284
187 197 201 177 167 187 130 90 124 234 247 255 66 129 196 203 210 220 236 244 237 224 233 244 250 252 244 218 190 173 172 158 138 148 161 155 158 159 150 149 148 141 131 305 291 291 302 314 322 329 332 329 326 325 324 324 324 322 321 320 319 319 320 321 320 319 317 315 315 317 318 314 310 307 307 307 307 305 303 300 298 295 288 284 282 280
181 187 187 167 168 170 135 177 211 256 296 295 253 160 147 187 203 212 246 254 240 225 233 240 246 250 244 211 157 146 143 128 120 143 166 158 160 149 143 155 159 152 169 211 246 283 316 327 329 329 327 325 325 326 325 326 327 324 321 321 320 320 322 322 320 319 321 320 318 317 315 312 311 311 310 307 303 300 299 297 296 293 288 282 278 277
179 182 181 181 202 189 183 216 238 306 310 295 268 179 159 186 182 177 247 264 234 206 224 235 240 245 231 152 133 131 125 119 116 257 209 153 147 141 141 146 144 150 165 177 228 307 326 328 326 326 326 325 325 326 326 327 327 325 322 322 323 323 323 323 321 322 322 319 316 314 313 313 312 310 309 307 303 298 299 301 298 292 286 279 274 274
188 188 178 188 212 192 192 237 264 282 277 275 272 185 182 175 151 141 247 278 218 184 212 228 229 225 173 133 144 139 125 138 190 215 198 166 150 138 132 129 136 145 147 144 327 334 333 328 329 329 327 326 324 326 329 329 328 326 322 322 324 325 324 324 323 323 322 317 315 316 315 313 309 306 303 303 300 298 301 306 304 298 289 277 268 269
194 202 179 199 220 193 196 226 234 245 253 241 115 187 146 125 108 92 343 284 223 184 205 219 215 193 152 150 160 146 140 190 222 209 178 173 165 143 131 130 134 136 130 113 45 351 338 333 333 331 329 327 325 327 331 330 328 326 322 323 325 325 324 325 324 323 320 316 314 315 313 312 311 309 306 304 304 305 306 307 306 301 294 282 274 269
188 185 171 216 225 206 205 226 235 248 254 189 140 146 126 123 109 89 298 276 229 180 200 198 191 175 156 157 160 157 176 210 221 188 165 164 156 134 138 147 143 137 129 112 72 358 346 343 339 334 329 326 324 328 331 331 329 325 322 324 325 324 324 325 324 322 317 313 313 314 315 316 316 315 313 312 311 311 310 309 307 303 297 291 284 275
195 190 192 218 228 217 212 228 252 264 250 169 154 155 138 116 99 160 241 241 155 166 190 173 171 166 156 160 171 182 198 187 139 141 146 145 139 134 140 140 135 132 127 117 48 354 353 350 342 332 326 324 326 329 331 331 329 326 325 326 325 325 326 324 322 320 317 316 316 317 319 321 320 319 318 317 318 317 315 314 312 306 300 294 288 276
175 180 211 222 222 220 222 228 267 277 241 156 154 158 142 130 219 231 221 136 139 170 177 166 168 162 160 171 178 167 139 113 121 132 141 144 146 147 144 133 128 125 119 107 30 8 2 349 340 331 326 328 329 330 331 331 327 325 327 327 325 326 327 325 323 322 319 319 320 320 322 323 324 323 322 322 325 324 318 314 313 310 304 298 290 277
164 158 204 215 194 176 213 206 243 271 211 147 143 157 171 187 224 188 121 87 150 166 162 165 167 159 163 171 159 135 132 131 133 137 144 149 144 142 143 136 130 126 115 85 29 19 4 347 340 329 325 328 329 329 331 330 327 326 326 326 327 329 328 327 327 325 323 323 324 324 325 326 327 327 327 328 330 327 319 316 317 315 311 304 293 279
169 171 195 208 177 150 188 204 210 242 171 153 152 175 194 194 169 128 138 143 157 165 162 158 160 164 164 158 148 145 144 144 149 146 146 150 143 138 140 133 129 130 122 98 49 21 1 348 339 327 325 328 328 329 333 332 329 329 328 328 331 332 330 330 330 329 327 327 327 327 329 329 329 331 332 333 334 331 325 323 322 319 317 313 303 286
198 190 182 188 185 182 210 220 205 130 160 174 179 183 178 174 144 139 152 148 159 188 178 155 162 169 161 151 148 154 156 157 160 155 151 155 152 143 141 134 131 134 130 111 70 15 358 350 340 330 326 327 330 332 336 339 337 332 330 333 335 334 333 333 332 331 331 330 329 331 332 332 332 334 336 338 338 335 329 327 326 323 323 324 322 312
213 192 148 94 193 227 268 251 202 146 173 191 200 156 140 162 160 150 151 153 171 181 166 160 168 166 160 154 149 159 174 165 159 160 156 154 152 144 137 132 133 139 135 112 65 9 0 353 345 335 326 326 332 336 338 342 343 336 333 336 337 337 335 335 334 333 333 332 332 334 335 336 335 336 339 343 342 337 333 331 329 325 325 332 336 334
225 181 191 216 176 187 258 238 190 178 187 191 195 186 146 169 180 165 159 166 173 172 168 168 165 159 159 160 158 169 179 164 159 167 158 150 155 151 141 140 145 145 134 113 70 15 11 1 347 336 325 323 332 340 341 343 344 341 339 339 340 340 338 337 337 335 334 335 335 336 339 340 338 337 341 345 344 339 336 335 332 330 332 336 338 336
188 158 187 222 209 201 236 243 154 178 193 190 193 194 170 177 187 176 168 166 159 164 168 162 156 156 158 166 168 168 169 167 168 169 162 161 163 153 149 156 152 143 130 108 76 30 21 7 345 330 322 324 333 340 342 344 345 346 346 345 343 343 342 340 339 337 336 337 338 338 341 342 340 341 342 344 345 342 339 337 336 334 334 336 337 337
133 155 183 204 209 227 249 233 121 141 216 207 202 202 191 184 180 167 159 152 147 153 160 154 158 164 165 172 170 159 163 179 177 166 164 166 160 154 157 156 147 141 131 106 80 43 22 4 340 327 324 328 337 341 343 345 349 351 351 349 348 347 345 342 340 339 339 341 341 342 343 344 345 345 343 344 347 344 339 339 338 334 333 336 339 341
149 193 189 164 195 228 233 203 161 164 223 211 198 201 198 180 166 158 154 155 157 161 160 153 150 154 162 170 166 157 168 182 172 162 166 164 160 162 157 147 141 137 129 115 90 44 16 357 339 329 329 335 342 344 344 348 352 354 354 353 352 351 348 344 342 341 342 344 345 345 345 346 347 346 344 348 349 343 337 342 345 344 341 341 343 348
195 208 192 185 212 228 218 193 178 191 221 194 182 195 193 167 161 165 165 167 170 168 163 157 154 155 166 175 171 166 170 173 165 162 159 153 155 154 147 146 144 137 131 123 89 35 7 354 343 335 337 342 345 345 347 352 356 357 356 356 356 354 352 348 344 342 343 345 346 345 345 348 347 341 340 347 349 344 340 341 344 347 351 351 350 354